TimeCST,TemperatureF,Dew PointF,Humidity,Sea Level PressureIn,VisibilityMPH,Wind Direction,Wind SpeedMPH,Gust SpeedMPH,PrecipitationIn,Events,Conditions,WindDirDegrees,DateUTC
12:44 AM,-0.4,-4.0,85,30.30,10.0,NW,4.6,-,N/A,,Partly Cloudy,310,2013-02-15 06:44:00
12:55 AM,-1.8,-6.2,82,30.30,10.0,WNW,5.8,-,N/A,,Partly Cloudy,300,2013-02-15 06:55:00
1:55 AM,-2.4,-6.7,82,30.30,10.0,WNW,5.8,-,N/A,,Clear,300,2013-02-15 07:55:00
2:55 AM,-1.3,-5.6,82,30.31,10.0,WNW,5.8,-,N/A,,Partly Cloudy,300,2013-02-15 08:55:00
3:55 AM,0.7,-3.8,81,30.32,10.0,NNW,6.9,-,N/A,,Clear,340,2013-02-15 09:55:00
4:55 AM,-2.2,-6.9,80,30.33,10.0,North,5.8,-,N/A,,Clear,350,2013-02-15 10:55:00
5:55 AM,-4.4,-8.9,81,30.33,10.0,NW,5.8,-,N/A,,Clear,320,2013-02-15 11:55:00
6:55 AM,-2.9,-7.6,80,30.34,10.0,NW,5.8,-,N/A,,Clear,320,2013-02-15 12:55:00
7:55 AM,-4.0,-8.9,80,30.35,10.0,NW,4.6,-,N/A,,Mostly Cloudy,310,2013-02-15 13:55:00
8:55 AM,0.1,-4.4,81,30.37,10.0,NW,3.5,-,N/A,,Partly Cloudy,310,2013-02-15 14:55:00
9:50 AM,5.0,-0.4,78,30.37,10.0,WNW,3.5,-,N/A,Snow,Light Snow,300,2013-02-15 15:50:00
9:55 AM,5.4,-0.8,76,30.37,10.0,Calm,Calm,-,0.00,Snow,Light Snow,0,2013-02-15 15:55:00
10:17 AM,6.8,-0.4,72,30.38,10.0,WNW,3.5,-,N/A,,Partly Cloudy,290,2013-02-15 16:17:00
10:43 AM,8.6,-0.4,67,30.38,10.0,WNW,4.6,-,N/A,,Overcast,300,2013-02-15 16:43:00
10:55 AM,9.0,0.7,69,30.38,10.0,WNW,3.5,-,0.00,,Overcast,300,2013-02-15 16:55:00
11:32 AM,10.4,1.4,67,30.38,10.0,NNW,5.8,-,N/A,,Overcast,330,2013-02-15 17:32:00
11:51 AM,12.2,1.4,62,30.38,10.0,North,5.8,-,N/A,,Overcast,350,2013-02-15 17:51:00
12:22 PM,12.2,3.2,67,30.38,10.0,NNW,4.6,-,N/A,,Overcast,340,2013-02-15 18:22:00
12:28 PM,12.2,1.4,62,30.38,10.0,NNW,5.8,-,N/A,,Overcast,340,2013-02-15 18:28:00
12:40 PM,14.0,3.2,62,30.38,10.0,WNW,5.8,-,N/A,Snow,Light Snow,300,2013-02-15 18:40:00
12:55 PM,14.2,3.6,63,30.37,10.0,NW,5.8,-,0.00,Snow,Light Snow,320,2013-02-15 18:55:00
1:18 PM,14.0,5.0,67,30.35,10.0,NW,6.9,-,N/A,,Partly Cloudy,310,2013-02-15 19:18:00
1:55 PM,15.4,5.7,65,30.35,10.0,NW,5.8,-,0.00,,Clear,310,2013-02-15 19:55:00
2:55 PM,16.5,7.7,68,30.34,10.0,NW,11.5,-,N/A,,Clear,310,2013-02-15 20:55:00
3:18 PM,15.8,8.6,73,30.34,10.0,NW,10.4,-,N/A,Snow,Light Snow,320,2013-02-15 21:18:00
3:28 PM,15.8,8.6,73,30.34,10.0,NW,10.4,-,N/A,,Clear,320,2013-02-15 21:28:00
3:55 PM,15.8,8.1,72,30.34,10.0,NW,10.4,-,0.00,,Clear,310,2013-02-15 21:55:00
4:55 PM,14.9,7.7,73,30.33,10.0,NW,10.4,-,N/A,,Clear,310,2013-02-15 22:55:00
5:55 PM,11.3,5.4,77,30.32,10.0,WNW,5.8,-,N/A,,Clear,300,2013-02-15 23:55:00
6:55 PM,7.0,2.5,82,30.30,10.0,West,6.9,-,N/A,,Clear,280,2013-02-16 00:55:00
7:55 PM,3.9,-0.0,84,30.28,10.0,West,4.6,-,N/A,,Clear,280,2013-02-16 01:55:00
8:12 PM,3.2,-0.4,85,30.27,10.0,WNW,5.8,-,N/A,Snow,Light Snow,290,2013-02-16 02:12:00
8:45 PM,3.2,-0.4,85,30.27,10.0,WNW,4.6,-,N/A,,Clear,300,2013-02-16 02:45:00
8:55 PM,2.7,-1.1,84,30.27,10.0,WNW,5.8,-,0.00,,Clear,300,2013-02-16 02:55:00
9:55 PM,1.8,-2.2,83,30.25,10.0,Calm,Calm,-,N/A,,Clear,0,2013-02-16 03:55:00
10:37 PM,1.4,-4.0,78,30.24,10.0,Calm,Calm,-,N/A,Snow,Light Snow,0,2013-02-16 04:37:00
10:55 PM,1.9,-2.4,82,30.24,10.0,Calm,Calm,-,0.00,Snow,Light Snow,0,2013-02-16 04:55:00
10:56 PM,1.4,-4.0,78,30.24,10.0,Calm,Calm,-,N/A,,Clear,0,2013-02-16 04:56:00
11:55 PM,-0.8,-5.3,81,30.22,10.0,SW,3.5,-,0.00,,Clear,230,2013-02-16 05:55:00